Regional Weather Roundup
Issued by NWS

Home | Current Version | Previous Version | Graphics & Text | Print | Product List | Glossary On
Versions: 1 2 3 4 5 6 7 8 9 10 11 12 13 14 15 16 17 18 19 20 21 22 23 24 25 26 27 28 29 30 31 32 33 34 35 36 37 38 39 40 41 42 43 44 45 46 47 48 49 50
000
ASUS43 KIND 272000
RWRIN

WEATHER ROUNDUP FOR INDIANA
NATIONAL WEATHER SERVICE INDIANAPOLIS IN
400 PM EDT TUE JUN 27 2017

NOTE: "FAIR" INDICATES FEW OR NO CLOUDS BELOW 12,000 FEET WITH NO
SIGNIFICANT WEATHER AND/OR OBSTRUCTIONS TO VISIBILITY.

* - STATION DOES NOT REPORT WEATHER SUCH AS PRECIPITATION OR FOG.

+ - STATION NOT QUALITY CONTROLLED BY THE NATIONAL WEATHER SERVICE.
    USE DATA WITH CAUTION...ESPECIALLY DEWPOINT AND RELATIVE
    HUMIDITY OBSERVATIONS.

INZ001>003-010>013-019-020-272100-
NORTHWEST INDIANA

CITY           SKY/WX    TMP DP  RH WIND       PRES   REMARKS
GARY /AIRPORT/ MOSUNNY   75  43  31 NE12      30.10F
KNOX *+        MOSUNNY   72  34  25 NW7       30.10S
MICHIGAN CITY+ SUNNY     72  45  37 NW8       30.11F
MONTICELLO +   MOSUNNY   73  47  39 W8        30.11F

$$

LMZ046-743>745-272100-
SOUTHERN LAKE MICHIGAN

STATION/POSITION TIME  TEMP    WIND        PRES    WAVE
                       AIR SEA DIR/SP/G            HT
                 (UTC) (F)     (DEG/KT/KT) (MB)    (FT)
BURNS HARBOR     1940   68      60/  8/  8 1019.6F
MICHIGAN CITY    1930   70     330/  2/  3   N/A
5NW MICH CITY    1950   66 68   90/  2/  4   N/A     1

$$

INZ004-005-014>016-021>024-272100-
NORTH CENTRAL INDIANA

CITY           SKY/WX    TMP DP  RH WIND       PRES   REMARKS
ELKHART        MOSUNNY   72  43  35 NW10      30.10S
GOSHEN         MOSUNNY   71  44  37 W12       30.09F
SOUTH BEND     SUNNY     72  44  36 NW15      30.11S

$$

INZ006>009-017-018-025>027-272100-
NORTHEAST INDIANA

CITY           SKY/WX    TMP DP  RH WIND       PRES   REMARKS
FORT WAYNE     PTSUNNY   71  47  42 W13       30.10F
KENDALLVILLE + MOSUNNY   71  46  40 NW5       30.10S

$$

INZ028-029-035-036-043>045-051>053-272100-
WEST CENTRAL INDIANA

CITY           SKY/WX    TMP DP  RH WIND       PRES   REMARKS
CRAWFORDSVL +  SUNNY     69  45  43 NW5       30.13F
LAFAYETTE      MOSUNNY   72  51  47 W10       30.10F
TERRE HAUTE    SUNNY     73  45  36 SE5       30.12F

$$

INZ030>032-037>040-046>048-054>057-064-065-272100-
CENTRAL INDIANA

CITY           SKY/WX    TMP DP  RH WIND       PRES   REMARKS
ANDERSON         N/A     72  52  49 MISG        N/A
CP ATTERBURY + MOSUNNY   72  46  40 W3        30.13F
COLUMBUS       MOSUNNY   72  39  30 N6        30.14S
GREENWOOD *+   SUNNY     72  45  37 N7        30.14F
INDIANAPOLIS   MOSUNNY   72  46  39 CALM      30.12F
-EAGLE CREEK   PTSUNNY   72  46  39 N6        30.12F
KOKOMO +       MOSUNNY   72  48  42 VRB7      30.12F
MT COMFORT *+  MOSUNNY   72  48  43 NW7       30.14S
SHELBYVILLE    MOSUNNY   74  46  36 NW7       30.12F

$$

INZ033-034-041-042-049-050-058-059-272100-
EAST CENTRAL INDIANA

CITY           SKY/WX    TMP DP  RH WIND       PRES   REMARKS
MUNCIE         MOSUNNY   73  46  38 N5        30.12F
RICHMOND +     MOSUNNY   70  45  40 N5        30.14S HAZE

$$

INZ060-061-067>069-081>083-085>088-272100-
SOUTHWEST INDIANA

CITY           SKY/WX    TMP DP  RH WIND       PRES   REMARKS
EVANSVILLE     MOSUNNY   79  48  33 CALM      30.12F
HUNTINGBURG *+ MOSUNNY   75  52  44 CALM      30.12F

$$

INZ062-063-066-070>080-084-089>092-272100-
SOUTH CENTRAL AND SOUTHEAST INDIANA

CITY           SKY/WX    TMP DP  RH WIND       PRES   REMARKS
BLOOMINGTON    MOSUNNY   75  45  34 N6        30.12F
MADISON *+     SUNNY     73  37  27 W6        30.15S
SEYMOUR +      SUNNY     75  48  38 NW5       30.12F

$$





USA.gov is the U.S. government's official web portal to all federal, state and local government web resources and services.